This is the latest recevied weather packets stored in our database for station/object N5SRF. If no packets are shown the sender has not sent any weather packets the latest 10 day(s).
| Time | Temp. | Humidity | Pressure | Rain* | Wind** | Luminosity | Snow |
|---|---|---|---|---|---|---|---|
| 1777917989 | 26.67° C | 52% | 1018.2 hPa | 0 mm | - | 782 W/m² | - |
| 1777917687 | 26.67° C | 55% | 1018.3 hPa | 0 mm | - | 787 W/m² | - |
| 1777916172 | 26.67° C | 56% | 1018.9 hPa | 0 mm | - | 773 W/m² | - |
| 1777912228 | 25° C | 55% | 1019.5 hPa | 0 mm | - | 697 W/m² | - |
| 1777909196 | 24.44° C | 59% | 1020 hPa | 0 mm | - | 577 W/m² | - |
| 1777908894 | 23.89° C | 59% | 1020.2 hPa | 0 mm | - | 586 W/m² | - |
| 1777908592 | 23.89° C | 58% | 1020.1 hPa | 0 mm | - | 573 W/m² | - |
| 1777907680 | 23.33° C | 61% | 1020.2 hPa | 0 mm | - | 535 W/m² | - |
| 1777907376 | 23.33° C | 59% | 1020.2 hPa | 0 mm | - | 525 W/m² | - |
| 1777907072 | 22.78° C | 62% | 1020.2 hPa | 0 mm | - | 510 W/m² | - |
| 1777906770 | 22.78° C | 62% | 1020.3 hPa | 0 mm | - | 503 W/m² | - |
| 1777905860 | 22.78° C | 62% | 1020.2 hPa | 0 mm | - | 484 W/m² | - |
| 1777905557 | 22.22° C | 63% | 1020.4 hPa | 0 mm | - | 323 W/m² | - |
| 1777905254 | 22.22° C | 64% | 1020.3 hPa | 0 mm | - | 374 W/m² | - |
| 1777904951 | 22.22° C | 65% | 1020.1 hPa | 0 mm | - | 447 W/m² | - |
| 1777904648 | 22.22° C | 66% | 1020.3 hPa | 0 mm | - | 395 W/m² | - |
| 1777904345 | 21.67° C | 66% | 1020.3 hPa | 0 mm | - | 343 W/m² | - |
| 1777904042 | 21.67° C | 66% | 1020.3 hPa | 0 mm | - | 354 W/m² | - |
| 1777903738 | 21.11° C | 68% | 1020.2 hPa | 0 mm | - | 334 W/m² | - |
| 1777903434 | 21.11° C | 68% | 1020.1 hPa | 0 mm | - | 237 W/m² | - |
| 1777903131 | 21.11° C | 70% | 1020.3 hPa | 0 mm | - | 300 W/m² | - |
| 1777902525 | 20° C | 71% | 1020.3 hPa | 0 mm | - | 270 W/m² | - |
| 1777902222 | 20° C | 72% | 1020.3 hPa | 0 mm | - | 109 W/m² | - |
| 1777901920 | 20° C | 72% | 1020.3 hPa | 0 mm | - | 122 W/m² | - |
| 1777901617 | 20° C | 71% | 1020.2 hPa | 0 mm | - | 229 W/m² | - |
* Rain latest hour (hover to see other rain measurements)
** Current wind speed in m/s (hover to see current wind gust speed)